TimePST,TemperatureF,Dew PointF,Humidity,Sea Level PressureIn,VisibilityMPH,Wind Direction,Wind SpeedMPH,Gust SpeedMPH,PrecipitationIn,Events,Conditions,WindDirDegrees,DateUTC
12:53 AM,37.0,30.9,79,29.97,10.0,SW,6.9,-,N/A,,Overcast,220,2013-02-20 08:53:00
1:26 AM,35.6,30.2,81,29.95,2.0,SSW,8.1,-,0.02,Snow,Light Snow,210,2013-02-20 09:26:00
1:36 AM,35.6,32.0,87,29.94,6.0,South,9.2,-,0.02,Rain,Light Rain,170,2013-02-20 09:36:00
1:53 AM,35.1,32.0,89,29.98,10.0,SSE,6.9,-,0.02,,Overcast,150,2013-02-20 09:53:00
2:53 AM,35.1,33.1,92,29.98,7.0,Calm,Calm,-,N/A,,Overcast,0,2013-02-20 10:53:00
3:53 AM,34.0,33.1,96,29.99,8.0,Calm,Calm,-,N/A,,Overcast,0,2013-02-20 11:53:00
5:53 AM,34.0,30.9,89,30.01,10.0,SSE,3.5,-,N/A,,Mostly Cloudy,160,2013-02-20 13:53:00
6:53 AM,35.1,30.0,82,30.02,10.0,SSW,4.6,-,N/A,,Clear,200,2013-02-20 14:53:00
7:53 AM,34.0,30.9,89,30.05,10.0,South,4.6,-,N/A,,Scattered Clouds,180,2013-02-20 15:53:00
8:53 AM,36.0,32.0,86,30.06,10.0,South,6.9,-,N/A,,Mostly Cloudy,190,2013-02-20 16:53:00
9:53 AM,39.0,32.0,76,30.04,10.0,South,6.9,-,N/A,,Scattered Clouds,190,2013-02-20 17:53:00
10:53 AM,42.1,33.1,70,30.04,10.0,South,10.4,-,N/A,,Partly Cloudy,190,2013-02-20 18:53:00
11:53 AM,43.0,30.0,60,30.03,10.0,SSW,4.6,-,N/A,,Scattered Clouds,210,2013-02-20 19:53:00
12:53 PM,44.1,28.9,55,30.01,10.0,Variable,3.5,-,N/A,,Mostly Cloudy,0,2013-02-20 20:53:00
1:53 PM,46.0,30.0,54,29.99,10.0,SSW,5.8,-,N/A,,Mostly Cloudy,210,2013-02-20 21:53:00
2:53 PM,46.9,30.0,52,29.98,10.0,South,6.9,-,N/A,,Mostly Cloudy,180,2013-02-20 22:53:00
3:53 PM,46.9,28.9,50,29.98,10.0,SW,4.6,-,N/A,,Mostly Cloudy,220,2013-02-20 23:53:00
4:53 PM,44.1,30.9,60,29.99,10.0,West,6.9,-,N/A,,Scattered Clouds,270,2013-02-21 00:53:00
5:53 PM,41.0,28.9,62,29.99,10.0,SE,4.6,-,N/A,,Clear,130,2013-02-21 01:53:00
6:53 PM,37.0,28.9,73,30.01,10.0,SE,6.9,-,N/A,,Clear,130,2013-02-21 02:53:00
7:53 PM,39.9,28.0,63,30.01,10.0,South,6.9,-,N/A,,Partly Cloudy,170,2013-02-21 03:53:00
8:53 PM,39.9,28.0,63,30.01,10.0,SSE,9.2,-,N/A,,Clear,160,2013-02-21 04:53:00
10:53 PM,37.0,28.0,70,30.02,10.0,South,9.2,-,N/A,,Clear,190,2013-02-21 06:53:00
11:53 PM,36.0,28.0,73,30.03,10.0,South,9.2,-,N/A,,Clear,180,2013-02-21 07:53:00